Weather Service Report


561 
ASUS41 KCLE 011712
RWRCLE
OHIO REGIONAL WEATHER ROUNDUP
NATIONAL WEATHER SERVICE WILMINGTON, OH
100 PM EDT SAT OCT 01 2016

NOTE: "FAIR" INDICATES FEW OR NO CLOUDS BELOW 12,000 FEET WITH NO
SIGNIFICANT WEATHER AND/OR OBSTRUCTIONS TO VISIBILITY.

OHZ001>008-015>018-024>027-034-035-043-044-011800-
   NORTHWEST OHIO
  
CITY           SKY/WX    TMP DP  RH WIND       PRES   REMARKS
DEFIANCE       PTSUNNY   65  54  67 S7        30.03S                  
FINDLAY        PTSUNNY   67  52  58 S10       30.03S                  
TOLEDO EXPRESS CLOUDY    65  55  70 SE7       30.04F                  
TOLEDO EXEC    CLOUDY    67  56  67 S9        30.04F                  
LIMA           FAIR      63  52  67 S13G22    30.04S                  
$$
 
OHZ009>014-019>023-028>033-038-089-011800-
   NORTHEAST OHIO
  
CITY           SKY/WX    TMP DP  RH WIND       PRES   REMARKS
CLE-HOPKINS    PTSUNNY   68  54  60 S7        30.07F                  
CLE-LAKEFRONT  PTSUNNY   68  55  63 S6        30.04F                  
CUY CO. ARPT   PTSUNNY   66  59  77 SW9       30.07F                  
LORAIN-ELYRIA  PTSUNNY   67  55  65 CALM      30.06F                  
ASHTABULA      CLOUDY    65  59  81 S7        30.09F                  
AKRON-CANTON   PTSUNNY   67  56  67 S8        30.06F                  
WOOSTER        FAIR      67  54  63 VRB7      30.07F                  
MANSFIELD      PTSUNNY   65  53  65 SW9       30.07F                  
YOUNGSTOWN     PTSUNNY   65  58  78 SE7       30.08F                  
$$
 
OHZ042-051>053-060>062-070>072-077>081-011800-
  SOUTHWEST OHIO
  
CITY           SKY/WX    TMP DP  RH WIND       PRES   REMARKS
CINC-COVINGTON CLOUDY    62  56  80 S7        30.06S                  
CINC-LUNKEN    FAIR      64  57  78 S7        30.05F                  
HAMILTON       CLOUDY    65  54  67 SW7       30.06F                  
DAYTON         PTSUNNY   61  51  70 SW13      30.06S                  
WRIGHT-PAT AFB MOSUNNY   66  52  61 S14       30.04F                  
DAYTON GENERAL FAIR      64  52  64 S12       30.04F                  
WILMINGTON     FAIR      64  55  72 S10       30.05F                  
$$

OHZ036-037-039>041-045>050-054>059-063>069-073>076-082>088-011800-
  CENTRAL AND SOUTHEAST OHIO
  
CITY           SKY/WX    TMP DP  RH WIND       PRES   REMARKS
COLUMBUS       CLOUDY    62  55  77 S12       30.06F                  
OSU AIRPORT    FAIR      63  56  78 S8        30.06S                  
BOLTON FIELD   CLOUDY    63  55  77 S7        30.07S                  
RICKENBACK AFB CLOUDY    60  55  83 S8        30.06F                  
NEWARK         FAIR      66  53  63 SW7       30.06F                  
MARION         PTSUNNY   64  54  69 S16G22    30.06F                  
LANCASTER      CLOUDY    63  55  75 SW6       30.08S                  
ZANESVILLE     FAIR      67  53  61 S6        30.07F                  
NEW PHILLY     FAIR      68  55  63 VRB5      30.07F                  
$$
  

Return to Home page


Western Regional Climate Center, wrcc@dri.edu